Weather Roundup
Issued by NWS Springfield, MO

Home | Current Version | Previous Version | Text Only | Print | Product List | Glossary On
Versions: 1 2 3 4 5 6 7 8 9 10 11 12 13 14 15 16 17 18 19 20 21 22 23 24 25 26 27 28 29 30 31 32 33 34 35 36 37 38 39 40 41 42 43 44 45 46 47 48 49 50
997
NZUS99 KSGF 060707
HRRSGF

HOURLY WEATHER
NATIONAL WEATHER SERVICE SPRINGFIELD MO
100 AM CST SAT FEB 06 2016

......SGF CWA......

CITY           SKY/WX    TMP DP  RH WIND       PRES   REMARKS
SPRINGFIELD    CLOUDY    33  18  53 S8        30.27F WCI  26
JOPLIN         CLOUDY    42  18  37 S10       30.28F
WEST PLAINS    CLEAR     36  14  40 SW6       30.31S WCI  31
ROLLA          CLEAR     31  19  61 S7        30.26F WCI  24
OSAGE BEACH    CLOUDY    30  19  64 SE3       30.29S
BRANSON        PTCLDY    36  14  41 CALM      30.31S

......SURROUNDING SGF CWA......

CITY           SKY/WX    TMP DP  RH WIND       PRES   REMARKS
CHANUTE        PTCLDY    36  26  67 SW8       30.27R WCI  30
PARSONS        CLOUDY    39  25  57 S5        30.29S
COFFEYVILLE    PTCLDY    35  24  64 SE6       30.29S WCI  30
EMPORIA        PTCLDY    31  22  69 W7        30.25S WCI  24
GROVE OK       CLOUDY    37  27  65 CALM      30.31S
ROGERS AR      CLEAR     34  18  52 SE6       30.30F WCI  29
SILOAM SPRINGS CLOUDY    36  16  44 SE6       30.30F WCI  31
HARRISON AR    CLEAR     37  16  42 SW3       30.30F
NEAR YELLVILLE CLEAR     30  18  59 CALM      30.30F

......KANSAS AND MISSOURI......

CITY           SKY/WX    TMP DP  RH WIND       PRES   REMARKS
KANSAS CTY INT PTCLDY    35  24  64 CALM      30.24F
DOWNTOWN KC    MOCLDY    34  26  72 NE3       30.25F
COLUMBIA       MOCLDY    32  18  56 SE7       30.28F WCI  26
SEDALIA        CLOUDY    33  23  66 S7        30.28F WCI  27
ST JOSEPH      CLEAR     25  23  92 CALM      30.27F
ST LOUIS       MOCLDY    31  20  63 E3        30.32F
SPIRIT OF STL  CLOUDY    28  23  81 CALM      30.31F
KIRKSVILLE     MOCLDY    29  20  69 SE3       30.28S
WICHITA        CLOUDY    35  26  69 NW6       30.28S WCI  30
TOPEKA         PTCLDY    31  25  78 W5        30.26S WCI  26
OLATHE         CLOUDY    35  25  66 SE6       30.25F WCI  30

......TENNESSEE......

CITY           SKY/WX    TMP DP  RH WIND       PRES   REMARKS
MEMPHIS        MOCLDY    37  24  59 CALM      30.37F
NASHVILLE      MOCLDY    33  22  63 S3        30.38S

......ARKANSAS.......

CITY           SKY/WX    TMP DP  RH WIND       PRES   REMARKS
FAYETTEVILLE   PTCLDY    26  21  81 CALM      30.31S
FT SMITH       MOCLDY    37  22  54 NE5       30.32S WCI  33
LITTLE ROCK    MOCLDY    34  24  67 CALM      30.37F

......OKLAHOMA.......

CITY           SKY/WX    TMP DP  RH WIND       PRES   REMARKS
TULSA          CLOUDY    47  25  42 SW5       30.29R
PONCA CITY     CLOUDY    39  36  89 CALM      30.30S
MCALESTER      CLOUDY    46  18  32 S5        30.30R
OKLAHOMA CITY  CLOUDY    42  32  67 W5        30.28R

......IOWA............

CITY           SKY/WX    TMP DP  RH WIND       PRES   REMARKS
DES MOINES     CLOUDY    31  26  82 SW7       30.26S WCI  24
QUAD CITIES    CLOUDY    29  22  75 S3        30.29F

......ILLINOIS........

CITY           SKY/WX    TMP DP  RH WIND       PRES   REMARKS
QUINCY         CLOUDY    30  22  72 SE5       30.29F WCI  25
CHICAGO        CLOUDY    27  22  81 SW5       30.29F WCI  22




USA.gov is the U.S. government's official web portal to all federal, state and local government web resources and services.